Wetterdaten: Mittwoch, 10.12.2014
Datum Zeit Temp. A. Feuchte A. Luftdruck Regen Wind Richtung Richtung Sonnenschein ET UV Solar Taupunkt Windchill Windben Empfang
10.12.2014 00:00 -1,8 C 83 % 1031,9 hPa 0,0 l/m 0,0 km/h (0 Bft) SW 230 0 min 0,000 mm 0,0 UV-I 0 W/m -4,3 C -1,8 C 0,0 km/h (0 Bft) 0,00 %
10.12.2014 00:15 -1,9 C 84 % 1031,9 hPa 0,0 l/m 0,0 km/h (0 Bft) SW 230 0 min 0,000 mm 0,0 UV-I 0 W/m -4,2 C -1,9 C 0,0 km/h (0 Bft) 0,00 %
10.12.2014 00:30 -1,7 C 83 % 1031,8 hPa 0,0 l/m 0,0 km/h (0 Bft) SW 230 0 min 0,000 mm 0,0 UV-I 0 W/m -4,2 C -1,7 C 0,0 km/h (0 Bft) 0,00 %
10.12.2014 00:45 -1,3 C 83 % 1031,5 hPa 0,0 l/m 0,0 km/h (0 Bft) SW 230 0 min 0,000 mm 0,0 UV-I 0 W/m -3,8 C -1,3 C 0,0 km/h (0 Bft) 0,00 %
10.12.2014 01:00 -1,1 C 82 % 1031,2 hPa 0,0 l/m 0,0 km/h (0 Bft) SW 230 0 min 0,000 mm 0,0 UV-I 0 W/m -3,8 C -1,1 C 0,0 km/h (0 Bft) 0,00 %
10.12.2014 01:15 -1,0 C 82 % 1031,2 hPa 0,0 l/m 0,0 km/h (0 Bft) SW 230 0 min 0,000 mm 0,0 UV-I 0 W/m -3,7 C -1,0 C 0,0 km/h (0 Bft) 0,00 %
10.12.2014 01:30 -1,0 C 82 % 1031,1 hPa 0,0 l/m 0,0 km/h (0 Bft) SW 230 0 min 0,000 mm 0,0 UV-I 0 W/m -3,7 C -1,0 C 0,0 km/h (0 Bft) 0,00 %
10.12.2014 01:45 -1,1 C 82 % 1030,9 hPa 0,0 l/m 0,0 km/h (0 Bft) SW 230 0 min 0,000 mm 0,0 UV-I 0 W/m -3,8 C -1,1 C 0,0 km/h (0 Bft) 0,00 %
10.12.2014 02:00 -1,1 C 82 % 1031,1 hPa 0,0 l/m 0,0 km/h (0 Bft) SW 230 0 min 0,000 mm 0,0 UV-I 0 W/m -3,8 C -1,1 C 0,0 km/h (0 Bft) 0,00 %
10.12.2014 02:15 -1,1 C 82 % 1031,0 hPa 0,0 l/m 0,0 km/h (0 Bft) SW 230 0 min 0,000 mm 0,0 UV-I 0 W/m -3,8 C -1,1 C 0,0 km/h (0 Bft) 0,00 %
10.12.2014 02:30 -1,1 C 81 % 1030,9 hPa 0,0 l/m 0,0 km/h (0 Bft) SW 230 0 min 0,000 mm 0,0 UV-I 0 W/m -3,9 C -1,1 C 0,0 km/h (0 Bft) 0,00 %
10.12.2014 02:45 -1,1 C 81 % 1031,0 hPa 0,0 l/m 0,0 km/h (0 Bft) SW 230 0 min 0,000 mm 0,0 UV-I 0 W/m -3,9 C -1,1 C 0,0 km/h (0 Bft) 0,00 %
10.12.2014 03:00 -1,1 C 81 % 1030,6 hPa 0,0 l/m 0,0 km/h (0 Bft) SW 230 0 min 0,000 mm 0,0 UV-I 0 W/m -3,9 C -1,1 C 0,0 km/h (0 Bft) 0,00 %
10.12.2014 03:15 -1,2 C 82 % 1030,3 hPa 0,0 l/m 0,0 km/h (0 Bft) SW 230 0 min 0,000 mm 0,0 UV-I 0 W/m -3,9 C -1,2 C 0,0 km/h (0 Bft) 0,00 %
10.12.2014 03:30 -1,2 C 82 % 1030,1 hPa 0,0 l/m 0,0 km/h (0 Bft) SW 230 0 min 0,000 mm 0,0 UV-I 0 W/m -3,9 C -1,2 C 0,0 km/h (0 Bft) 0,00 %
10.12.2014 03:45 -1,2 C 82 % 1029,9 hPa 0,0 l/m 0,0 km/h (0 Bft) SW 230 0 min 0,000 mm 0,0 UV-I 0 W/m -3,9 C -1,2 C 0,0 km/h (0 Bft) 0,00 %
10.12.2014 04:00 -1,1 C 82 % 1029,8 hPa 0,0 l/m 0,0 km/h (0 Bft) SW 230 0 min 0,000 mm 0,0 UV-I 0 W/m -3,8 C -1,1 C 0,0 km/h (0 Bft) 0,00 %
10.12.2014 04:15 -1,1 C 82 % 1029,7 hPa 0,0 l/m 0,0 km/h (0 Bft) SW 230 0 min 0,000 mm 0,0 UV-I 0 W/m -3,8 C -1,1 C 0,0 km/h (0 Bft) 0,00 %
10.12.2014 04:30 -1,0 C 82 % 1029,7 hPa 0,0 l/m 0,0 km/h (0 Bft) SW 230 0 min 0,000 mm 0,0 UV-I 0 W/m -3,7 C -1,0 C 0,0 km/h (0 Bft) 0,00 %
10.12.2014 04:45 -1,0 C 81 % 1029,7 hPa 0,0 l/m 0,0 km/h (0 Bft) SW 230 0 min 0,000 mm 0,0 UV-I 0 W/m -3,8 C -1,0 C 0,0 km/h (0 Bft) 0,00 %
10.12.2014 05:00 -1,0 C 81 % 1029,7 hPa 0,0 l/m 0,0 km/h (0 Bft) SW 230 0 min 0,000 mm 0,0 UV-I 0 W/m -3,8 C -1,0 C 0,0 km/h (0 Bft) 0,00 %
10.12.2014 05:15 -1,1 C 81 % 1029,6 hPa 0,0 l/m 0,0 km/h (0 Bft) SW 230 0 min 0,000 mm 0,0 UV-I 0 W/m -3,9 C -1,1 C 0,0 km/h (0 Bft) 0,00 %
10.12.2014 05:30 -1,3 C 81 % 1029,2 hPa 0,0 l/m 0,0 km/h (0 Bft) SW 230 0 min 0,000 mm 0,0 UV-I 0 W/m -4,1 C -1,3 C 0,0 km/h (0 Bft) 0,00 %
10.12.2014 05:45 -1,4 C 81 % 1029,2 hPa 0,0 l/m 0,0 km/h (0 Bft) SW 230 0 min 0,000 mm 0,0 UV-I 0 W/m -4,2 C -1,4 C 0,0 km/h (0 Bft) 0,00 %
10.12.2014 06:00 -1,5 C 81 % 1029,2 hPa 0,0 l/m 0,0 km/h (0 Bft) SW 230 0 min 0,000 mm 0,0 UV-I 0 W/m -4,3 C -1,5 C 0,0 km/h (0 Bft) 0,00 %
10.12.2014 06:15 -1,5 C 81 % 1029,2 hPa 0,0 l/m 0,0 km/h (0 Bft) SW 230 0 min 0,000 mm 0,0 UV-I 0 W/m -4,3 C -1,5 C 0,0 km/h (0 Bft) 0,00 %
10.12.2014 06:30 -1,5 C 80 % 1029,5 hPa 0,0 l/m 0,0 km/h (0 Bft) SW 230 0 min 0,000 mm 0,0 UV-I 0 W/m -4,5 C -1,5 C 0,0 km/h (0 Bft) 0,00 %
10.12.2014 06:45 -1,4 C 81 % 1029,3 hPa 0,0 l/m 0,4 km/h (0 Bft) SW 230 0 min 0,000 mm 0,0 UV-I 0 W/m -4,2 C -1,4 C 4,0 km/h (1 Bft) 0,00 %
10.12.2014 07:00 -1,5 C 81 % 1029,2 hPa 0,0 l/m 0,4 km/h (0 Bft) SW 230 0 min 0,000 mm 0,0 UV-I 0 W/m -4,3 C -1,5 C 4,0 km/h (1 Bft) 0,00 %
10.12.2014 07:15 -1,5 C 80 % 1029,4 hPa 0,0 l/m 0,0 km/h (0 Bft) SW 230 0 min 0,000 mm 0,0 UV-I 0 W/m -4,5 C -1,5 C 0,0 km/h (0 Bft) 0,00 %
10.12.2014 07:30 -1,4 C 80 % 1029,2 hPa 0,0 l/m 0,0 km/h (0 Bft) SW 230 0 min 0,000 mm 0,0 UV-I 0 W/m -4,4 C -1,4 C 0,0 km/h (0 Bft) 0,00 %
10.12.2014 07:45 -1,4 C 80 % 1029,0 hPa 0,0 l/m 0,0 km/h (0 Bft) SW 230 0 min 0,000 mm 0,0 UV-I 0 W/m -4,4 C -1,4 C 0,0 km/h (0 Bft) 0,00 %
10.12.2014 08:00 -1,2 C 80 % 1029,0 hPa 0,0 l/m 0,0 km/h (0 Bft) SW 230 0 min 0,000 mm 0,0 UV-I 0 W/m -4,2 C -1,2 C 0,0 km/h (0 Bft) 0,00 %
10.12.2014 08:15 -1,0 C 77 % 1028,8 hPa 0,0 l/m 0,4 km/h (0 Bft) SW 230 0 min 0,000 mm 0,0 UV-I 5 W/m -4,5 C -1,0 C 4,0 km/h (1 Bft) 0,00 %
10.12.2014 08:30 -0,9 C 77 % 1028,8 hPa 0,0 l/m 0,0 km/h (0 Bft) SW 230 0 min 0,000 mm 0,0 UV-I 19 W/m -4,4 C -0,9 C 0,0 km/h (0 Bft) 0,00 %
10.12.2014 08:45 -0,8 C 75 % 1028,9 hPa 0,0 l/m 0,0 km/h (0 Bft) SW 230 0 min 0,000 mm 0,0 UV-I 29 W/m -4,7 C -0,8 C 0,0 km/h (0 Bft) 0,00 %
10.12.2014 09:00 -0,6 C 73 % 1029,0 hPa 0,0 l/m 0,0 km/h (0 Bft) SW 230 0 min 0,000 mm 1,0 UV-I 33 W/m -4,8 C -0,6 C 0,0 km/h (0 Bft) 0,00 %
10.12.2014 09:15 -0,6 C 72 % 1028,8 hPa 0,0 l/m 0,0 km/h (0 Bft) SW 230 0 min 0,000 mm 1,0 UV-I 55 W/m -5,0 C -0,6 C 0,0 km/h (0 Bft) 0,00 %
10.12.2014 09:30 -0,5 C 71 % 1028,8 hPa 0,0 l/m 0,0 km/h (0 Bft) SW 230 0 min 0,000 mm 1,0 UV-I 61 W/m -5,1 C -0,5 C 0,0 km/h (0 Bft) 0,00 %
10.12.2014 09:45 -0,4 C 71 % 1028,4 hPa 0,0 l/m 0,0 km/h (0 Bft) SW 231 0 min 0,000 mm 1,0 UV-I 82 W/m -5,0 C -0,4 C 0,0 km/h (0 Bft) 0,00 %
10.12.2014 10:00 -0,3 C 70 % 1028,3 hPa 0,0 l/m 1,8 km/h (1 Bft) W-SW 254 15 min 0,000 mm 1,0 UV-I 178 W/m -5,1 C -0,3 C 4,0 km/h (1 Bft) 0,00 %
10.12.2014 10:15 -0,1 C 70 % 1028,1 hPa 0,0 l/m 1,8 km/h (1 Bft) W-SW 251 15 min 0,000 mm 1,0 UV-I 180 W/m -4,9 C -0,1 C 4,0 km/h (1 Bft) 0,00 %
10.12.2014 10:30 0,1 C 70 % 1027,8 hPa 0,0 l/m 0,0 km/h (0 Bft) SW 227 15 min 0,000 mm 1,0 UV-I 190 W/m -4,7 C 0,1 C 0,0 km/h (0 Bft) 0,00 %
10.12.2014 10:45 0,3 C 68 % 1027,5 hPa 0,0 l/m 0,7 km/h (0 Bft) W-SW 255 15 min 0,000 mm 2,0 UV-I 210 W/m -4,9 C 0,3 C 4,0 km/h (1 Bft) 0,00 %
10.12.2014 11:00 0,3 C 68 % 1027,1 hPa 0,0 l/m 0,4 km/h (0 Bft) W-SW 254 15 min 0,000 mm 2,0 UV-I 200 W/m -4,9 C 0,3 C 4,0 km/h (1 Bft) 0,00 %
10.12.2014 11:15 0,6 C 66 % 1026,8 hPa 0,0 l/m 0,7 km/h (0 Bft) NW 309 15 min 0,000 mm 1,0 UV-I 233 W/m -5,0 C 0,6 C 4,0 km/h (1 Bft) 0,00 %
10.12.2014 11:30 0,4 C 66 % 1026,7 hPa 0,0 l/m 0,0 km/h (0 Bft) W-SW 252 15 min 0,000 mm 1,0 UV-I 221 W/m -5,2 C 0,4 C 0,0 km/h (0 Bft) 0,00 %
10.12.2014 11:45 1,1 C 66 % 1026,4 hPa 0,0 l/m 0,0 km/h (0 Bft) NW 322 15 min 0,000 mm 1,0 UV-I 222 W/m -4,5 C 1,1 C 0,0 km/h (0 Bft) 0,00 %
10.12.2014 12:00 1,1 C 64 % 1026,1 hPa 0,0 l/m 0,0 km/h (0 Bft) W-SW 256 15 min 0,000 mm 1,0 UV-I 210 W/m -4,9 C 1,1 C 0,0 km/h (0 Bft) 0,00 %
10.12.2014 12:15 1,0 C 66 % 1025,8 hPa 0,0 l/m 0,7 km/h (0 Bft) SW 225 15 min 0,000 mm 1,0 UV-I 215 W/m -4,6 C 1,0 C 4,0 km/h (1 Bft) 0,00 %
10.12.2014 12:30 1,2 C 65 % 1025,3 hPa 0,0 l/m 0,7 km/h (0 Bft) W-SW 256 15 min 0,000 mm 1,0 UV-I 267 W/m -4,6 C 1,2 C 4,0 km/h (1 Bft) 0,00 %
10.12.2014 12:45 0,8 C 66 % 1025,1 hPa 0,0 l/m 0,0 km/h (0 Bft) NO 44 15 min 0,000 mm 1,0 UV-I 256 W/m -4,8 C 0,8 C 0,0 km/h (0 Bft) 0,00 %
10.12.2014 13:00 0,6 C 66 % 1025,0 hPa 0,0 l/m 0,0 km/h (0 Bft) W-SW 237 0 min 0,000 mm 1,0 UV-I 114 W/m -5,0 C 0,6 C 0,0 km/h (0 Bft) 0,00 %
10.12.2014 13:15 0,7 C 67 % 1024,7 hPa 0,0 l/m 0,0 km/h (0 Bft) W-SW 256 0 min 0,000 mm 1,0 UV-I 110 W/m -4,7 C 0,7 C 0,0 km/h (0 Bft) 0,00 %
10.12.2014 13:30 0,7 C 66 % 1024,4 hPa 0,0 l/m 0,0 km/h (0 Bft) N-NW 346 0 min 0,000 mm 1,0 UV-I 100 W/m -4,9 C 0,7 C 0,0 km/h (0 Bft) 0,00 %
10.12.2014 13:45 0,8 C 65 % 1024,5 hPa 0,0 l/m 0,0 km/h (0 Bft) S-SW 203 0 min 0,000 mm 1,0 UV-I 71 W/m -5,0 C 0,8 C 0,0 km/h (0 Bft) 0,00 %
10.12.2014 14:00 0,8 C 68 % 1024,4 hPa 0,0 l/m 0,0 km/h (0 Bft) O-SO 103 0 min 0,000 mm 1,0 UV-I 57 W/m -4,4 C 0,8 C 0,0 km/h (0 Bft) 0,00 %
10.12.2014 14:15 0,6 C 68 % 1024,4 hPa 0,0 l/m 0,0 km/h (0 Bft) S 174 0 min 0,000 mm 1,0 UV-I 55 W/m -4,6 C 0,6 C 0,0 km/h (0 Bft) 0,00 %
10.12.2014 14:30 0,4 C 70 % 1024,4 hPa 0,0 l/m 0,0 km/h (0 Bft) W-SW 241 0 min 0,000 mm 0,0 UV-I 38 W/m -4,4 C 0,4 C 0,0 km/h (0 Bft) 0,00 %
10.12.2014 14:45 0,3 C 71 % 1024,3 hPa 0,0 l/m 0,0 km/h (0 Bft) W-SW 255 0 min 0,000 mm 0,0 UV-I 20 W/m -4,3 C 0,3 C 0,0 km/h (0 Bft) 0,00 %
10.12.2014 15:00 0,2 C 71 % 1024,0 hPa 0,0 l/m 0,0 km/h (0 Bft) S-SW 204 0 min 0,000 mm 0,0 UV-I 18 W/m -4,4 C 0,2 C 0,0 km/h (0 Bft) 0,00 %
10.12.2014 15:15 0,2 C 72 % 1023,6 hPa 0,0 l/m 0,0 km/h (0 Bft) S 182 0 min 0,000 mm 0,0 UV-I 16 W/m -4,2 C 0,2 C 0,0 km/h (0 Bft) 0,00 %
10.12.2014 15:30 0,1 C 72 % 1023,5 hPa 0,0 l/m 0,0 km/h (0 Bft) S 180 0 min 0,000 mm 0,0 UV-I 2 W/m -4,3 C 0,1 C 0,0 km/h (0 Bft) 0,00 %
10.12.2014 15:45 0,0 C 73 % 1023,1 hPa 0,0 l/m 0,0 km/h (0 Bft) S 186 0 min 0,000 mm 0,0 UV-I 0 W/m -4,2 C 0,0 C 0,0 km/h (0 Bft) 0,00 %
10.12.2014 16:00 -0,1 C 74 % 1023,3 hPa 0,0 l/m 0,0 km/h (0 Bft) S-SW 198 0 min 0,000 mm 0,0 UV-I 0 W/m -4,2 C -0,1 C 0,0 km/h (0 Bft) 0,00 %
10.12.2014 16:15 -0,2 C 75 % 1022,9 hPa 0,0 l/m 0,0 km/h (0 Bft) W-SW 251 0 min 0,000 mm 0,0 UV-I 0 W/m -4,1 C -0,2 C 0,0 km/h (0 Bft) 0,00 %
10.12.2014 16:30 -0,3 C 75 % 1023,0 hPa 0,0 l/m 0,0 km/h (0 Bft) O 80 0 min 0,000 mm 0,0 UV-I 0 W/m -4,2 C -0,3 C 0,0 km/h (0 Bft) 0,00 %
10.12.2014 16:45 -0,5 C 75 % 1022,6 hPa 0,0 l/m 0,0 km/h (0 Bft) S 172 0 min 0,000 mm 0,0 UV-I 0 W/m -4,4 C -0,5 C 0,0 km/h (0 Bft) 0,00 %
10.12.2014 17:00 -0,5 C 77 % 1022,6 hPa 0,0 l/m 0,0 km/h (0 Bft) O-NO 78 0 min 0,000 mm 0,0 UV-I 0 W/m -4,0 C -0,5 C 0,0 km/h (0 Bft) 0,00 %
10.12.2014 17:15 -0,6 C 77 % 1022,2 hPa 0,0 l/m 0,0 km/h (0 Bft) S-SW 193 0 min 0,000 mm 0,0 UV-I 0 W/m -4,1 C -0,6 C 0,0 km/h (0 Bft) 0,00 %
10.12.2014 17:30 -0,6 C 76 % 1022,3 hPa 0,0 l/m 0,7 km/h (0 Bft) SO 124 0 min 0,000 mm 0,0 UV-I 0 W/m -4,3 C -0,6 C 4,0 km/h (1 Bft) 0,00 %
10.12.2014 17:45 -0,6 C 76 % 1022,3 hPa 0,0 l/m 0,0 km/h (0 Bft) SO 132 0 min 0,000 mm 0,0 UV-I 0 W/m -4,3 C -0,6 C 0,0 km/h (0 Bft) 0,00 %
10.12.2014 18:00 -0,6 C 76 % 1022,3 hPa 0,0 l/m 0,0 km/h (0 Bft) O-SO 122 0 min 0,000 mm 0,0 UV-I 0 W/m -4,3 C -0,6 C 0,0 km/h (0 Bft) 0,00 %
10.12.2014 18:15 -0,7 C 76 % 1022,1 hPa 0,0 l/m 0,0 km/h (0 Bft) S-SW 202 0 min 0,000 mm 0,0 UV-I 0 W/m -4,4 C -0,7 C 0,0 km/h (0 Bft) 0,00 %
10.12.2014 18:30 -0,8 C 77 % 1022,0 hPa 0,0 l/m 0,0 km/h (0 Bft) N-NW 339 0 min 0,000 mm 0,0 UV-I 0 W/m -4,3 C -0,8 C 0,0 km/h (0 Bft) 0,00 %
10.12.2014 18:45 -0,8 C 77 % 1022,1 hPa 0,0 l/m 0,0 km/h (0 Bft) N-NW 339 0 min 0,000 mm 0,0 UV-I 0 W/m -4,3 C -0,8 C 0,0 km/h (0 Bft) 0,00 %
10.12.2014 19:00 -0,8 C 78 % 1022,1 hPa 0,0 l/m 0,0 km/h (0 Bft) W-SW 239 0 min 0,000 mm 0,0 UV-I 0 W/m -4,1 C -0,8 C 0,0 km/h (0 Bft) 0,00 %
10.12.2014 19:15 -0,8 C 77 % 1022,2 hPa 0,0 l/m 0,0 km/h (0 Bft) W-SW 255 0 min 0,000 mm 0,0 UV-I 0 W/m -4,3 C -0,8 C 0,0 km/h (0 Bft) 0,00 %
10.12.2014 19:30 -0,7 C 77 % 1022,2 hPa 0,0 l/m 0,0 km/h (0 Bft) W-NW 293 0 min 0,000 mm 0,0 UV-I 0 W/m -4,2 C -0,7 C 0,0 km/h (0 Bft) 0,00 %
10.12.2014 19:45 -0,7 C 76 % 1022,2 hPa 0,0 l/m 0,0 km/h (0 Bft) SW 222 0 min 0,000 mm 0,0 UV-I 0 W/m -4,4 C -0,7 C 0,0 km/h (0 Bft) 0,00 %
10.12.2014 20:00 -0,7 C 76 % 1022,2 hPa 0,0 l/m 0,0 km/h (0 Bft) S 191 0 min 0,000 mm 0,0 UV-I 0 W/m -4,4 C -0,7 C 0,0 km/h (0 Bft) 0,00 %
10.12.2014 20:15 -0,6 C 76 % 1022,2 hPa 0,0 l/m 0,0 km/h (0 Bft) S-SW 203 0 min 0,000 mm 0,0 UV-I 0 W/m -4,3 C -0,6 C 0,0 km/h (0 Bft) 0,00 %
10.12.2014 20:30 -0,5 C 75 % 1022,1 hPa 0,0 l/m 0,0 km/h (0 Bft) S-SW 197 0 min 0,000 mm 0,0 UV-I 0 W/m -4,4 C -0,5 C 0,0 km/h (0 Bft) 0,00 %
10.12.2014 20:45 -0,5 C 75 % 1021,9 hPa 0,0 l/m 0,0 km/h (0 Bft) SW 233 0 min 0,000 mm 0,0 UV-I 0 W/m -4,4 C -0,5 C 0,0 km/h (0 Bft) 0,00 %
10.12.2014 21:00 -0,5 C 76 % 1021,9 hPa 0,0 l/m 0,0 km/h (0 Bft) S-SO 157 0 min 0,000 mm 0,0 UV-I 0 W/m -4,2 C -0,5 C 0,0 km/h (0 Bft) 0,00 %
10.12.2014 21:15 -0,5 C 77 % 1021,9 hPa 0,0 l/m 0,0 km/h (0 Bft) N 354 0 min 0,000 mm 0,0 UV-I 0 W/m -4,0 C -0,5 C 0,0 km/h (0 Bft) 0,00 %
10.12.2014 21:30 -0,5 C 78 % 1021,8 hPa 0,0 l/m 0,0 km/h (0 Bft) N 354 0 min 0,000 mm 0,0 UV-I 0 W/m -3,9 C -0,5 C 0,0 km/h (0 Bft) 0,00 %
10.12.2014 21:45 -0,5 C 78 % 1021,5 hPa 0,0 l/m 0,0 km/h (0 Bft) N 354 0 min 0,000 mm 0,0 UV-I 0 W/m -3,9 C -0,5 C 0,0 km/h (0 Bft) 0,00 %
10.12.2014 22:00 -0,4 C 79 % 1021,4 hPa 0,0 l/m 0,0 km/h (0 Bft) N 354 0 min 0,000 mm 0,0 UV-I 0 W/m -3,6 C -0,4 C 0,0 km/h (0 Bft) 0,00 %
10.12.2014 22:15 -0,3 C 80 % 1021,5 hPa 0,0 l/m 0,0 km/h (0 Bft) N-NW 345 0 min 0,000 mm 0,0 UV-I 0 W/m -3,3 C -0,3 C 0,0 km/h (0 Bft) 0,00 %
10.12.2014 22:30 -0,2 C 80 % 1021,5 hPa 0,0 l/m 0,0 km/h (0 Bft) N-NW 347 0 min 0,000 mm 0,0 UV-I 0 W/m -3,2 C -0,2 C 0,0 km/h (0 Bft) 0,00 %
10.12.2014 22:45 0,0 C 80 % 1021,5 hPa 0,0 l/m 0,0 km/h (0 Bft) O-SO 106 0 min 0,000 mm 0,0 UV-I 0 W/m -3,0 C 0,0 C 0,0 km/h (0 Bft) 0,00 %
10.12.2014 23:00 0,1 C 80 % 1021,3 hPa 0,0 l/m 0,0 km/h (0 Bft) S-SW 194 0 min 0,000 mm 0,0 UV-I 0 W/m -2,9 C 0,1 C 0,0 km/h (0 Bft) 0,00 %
10.12.2014 23:15 0,0 C 80 % 1021,4 hPa 0,0 l/m 0,0 km/h (0 Bft) S 177 0 min 0,000 mm 0,0 UV-I 0 W/m -3,0 C 0,0 C 0,0 km/h (0 Bft) 0,00 %
10.12.2014 23:30 0,0 C 80 % 1021,0 hPa 0,0 l/m 0,0 km/h (0 Bft) S 175 0 min 0,000 mm 0,0 UV-I 0 W/m -3,0 C 0,0 C 0,0 km/h (0 Bft) 0,00 %
10.12.2014 23:45 0,1 C 80 % 1020,9 hPa 0,0 l/m 0,0 km/h (0 Bft) N-NO 30 0 min 0,000 mm 0,0 UV-I 0 W/m -2,9 C 0,1 C 0,0 km/h (0 Bft) 0,00 %
_ Min-Zeit 00:15 12:00 23:45 - 00:00 - - - - - - 11:30 00:15 00:00 00:00
Minimum _ -1,9 C 64 % 1020,9 hPa - 0,0 km/h (0 Bft) - - - - - - -5,2 C -1,9 C 0,0 km/h (0 Bft) 0,00 %
_ Max-Zeit 12:30 00:15 00:00 00:00 10:00 - - 10:00 00:00 10:45 12:30 23:00 12:30 06:45 00:00
Maximum _ 1,2 C 84 % 1031,9 hPa 0,0 l/m 1,8 km/h
W-SW (1 Bft)
- - 15 min 0,000 mm 2,0 UV-I 267 W/m -2,9 C 1,2 C 4,0 km/h
SW (1 Bft)
0,00 %
Durchschnitt _ -0,5 C 76 % 1026,1 hPa #0,0 l/m 0,1 km/h (0 Bft) W-SW - #3:00 h #0,000 mm 1,1 UV-I 116 W/m -4,2 C -0,5 C 0,5 km/h (0 Bft) 0,00 %